This demonstration page uses our WeatherBlox Daily Observations layout. Learn more.

Hourly Observations for February 12, 2020

Temp ( °F °C ) Dew Point ( °F °C ) Humidity (%) Winds ( mph kmh ) Pressure ( in mb ) Visibility ( mi km ) Precip ( " mm )
12:15 am 00:15 Clear 29 -1.5 24 -4.5 80 80 SW 10 17 30.02 1017 10 16.0934 0 0
12:35 am 00:35 Clear 29 -1.6 24 -4.5 81 81 SW 9 15 30.02 1017 10 16.0934 0 0
12:55 am 00:55 Clear 29 -1.6 24 -4.5 81 81 SW 8 13 30.02 1017 10 16.0934 0 0
1:15 am 01:15 Clear 28 -2.1 24 -4.7 83 83 SW 6 9 30.01 1016 10 16.0934 0 0
1:35 am 01:35 Clear 28 -2.1 24 -4.5 84 84 SW 9 15 30.01 1016 10 16.0934 0 0
1:55 am 01:55 Clear 28 -2 24 -4.5 83 83 SW 9 15 30 1016 10 16.0934 0 0
2:15 am 02:15 Clear 28 -2.1 24 -4.3 85 85 SW 9 15 30 1016 10 16.0934 0 0
2:35 am 02:35 Clear 28 -2.2 24 -4.5 84 84 SSW 8 13 29.99 1015 10 16.0934 0 0
2:55 am 02:55 Clear 27 -3 23 -5 86 86 SSW 7 11 29.99 1016 10 16.0934 0 0
3:15 am 03:15 Clear 27 -3 24 -4.7 88 88 SSW 10 17 29.98 1015 10 16.0934 0 0
3:35 am 03:35 Clear 26 -3.1 23 -5 87 87 SSW 10 17 29.95 1014 10 16.0934 0 0
3:55 am 03:55 Clear 26 -3.3 23 -5 88 88 SSW 7 11 29.96 1014 10 16.0934 0 0
4:15 am 04:15 Clear 26 -3.4 23 -5 89 89 SW 8 13 29.95 1014 10 16.0934 0 0
4:35 am 04:35 Clear 26 -3.3 23 -5 88 88 SSW 9 15 29.94 1014 10 16.0934 0 0
4:55 am 04:55 Clear 26 -3.6 23 -5.1 89 89 SW 7 11 29.94 1014 10 16.0934 0 0
5:15 am 05:15 Clear 25 -4 22 -5.5 89 89 SW 6 9 29.94 1014 10 16.0934 0 0
5:35 am 05:35 Clear 25 -4.1 22 -5.3 91 91 SW 3 6 29.92 1013 10 16.0934 0 0
5:55 am 05:55 Clear 25 -4 23 -5.2 91 91 Calm 29.93 1014 10 16.0934 0 0
6:15 am 06:15 Clear 24 -4.6 22 -5.7 92 92 W 3 6 29.92 1013 10 16.0934 0 0
6:35 am 06:35 Clear 24 -4.6 22 -5.6 93 93 SW 6 9 29.92 1013 10 16.0934 0 0
6:55 am 06:55 Clear 23 -4.8 21 -6 91 91 Calm 29.9 1013 10 16.0934 0 0
7:15 am 07:15 Clear 22 -5.3 21 -6.3 93 93 WSW 5 7 29.91 1013 10 16.0934 0 0
7:35 am 07:35 Sunny 23 -5.1 21 -6 93 93 WSW 3 6 29.91 1013 10 16.0934 0 0
7:55 am 07:55 Sunny 22 -5.3 20 -6.4 92 92 SW 5 7 29.95 1014 10 16.0934 0 0
8:15 am 08:15 Mostly Cloudy 23 -5.1 21 -6.3 91 91 SSW 5 7 29.96 1015 10 16.0934 0 0
8:35 am 08:35 Cloudy 23 -5 21 -6.1 92 92 Calm 29.96 1015 10 16.0934 0 0
8:55 am 08:55 Cloudy 25 -3.9 23 -5.1 91 91 WSW 5 7 29.95 1014 10 16.0934 0 0
9:15 am 09:15 Cloudy 28 -2.5 24 -4.5 86 86 Calm 29.93 1013 10 16.0934 0 0
9:35 am 09:35 Cloudy 29 -1.6 25 -4 84 84 NW 6 9 29.92 1013 10 16.0934 0 0
9:55 am 09:55 Cloudy 32 0 26 -3.3 79 79 NW 8 13 29.89 1012 10 16.0934 0 0
10:15 am 10:15 Cloudy 33 0.5 26 -3.2 77 77 N 6 9 29.9 1013 10 16.0934 0 0
10:35 am 10:35 Cloudy 35 1.5 27 -2.9 73 73 N 7 11 29.9 1013 10 16.0934 0 0
10:55 am 10:55 Mostly Cloudy 37 2.5 27 -3 67 67 N 7 11 29.89 1012 10 16.0934 0 0
11:15 am 11:15 Mostly Cloudy 38 3.1 26 -3.2 64 64 N 12 19 29.9 1012 10 16.0934 0 0
11:35 am 11:35 Cloudy 38 3.2 27 -3 64 64 N 8 13 29.89 1012 10 16.0934 0 0
11:55 am 11:55 Cloudy 39 3.8 28 -2.5 64 64 N 8 13 29.9 1012 10 16.0934 0 0
12:15 pm 12:15 Cloudy 40 4.6 28 -2.2 62 62 N 8 13 29.89 1012 10 16.0934 0 0
12:35 pm 12:35 Cloudy 41 5 27 -3 57 57 N 9 15 29.9 1012 10 16.0934 0 0
12:55 pm 12:55 Cloudy 42 5.7 27 -2.9 54 54 NNW 12 19 29.88 1012 10 16.0934 0 0
1:15 pm 13:15 Cloudy 44 6.7 27 -2.8 51 51 NNW 15 24 29.87 1012 10 16.0934 0 0
1:35 pm 13:35 Partly Cloudy 46 7.9 26 -3.2 46 46 NNW 15 24 29.85 1011 10 16.0934 0 0
1:55 pm 13:55 Mostly Cloudy 45 7 26 -3.5 48 48 NNW 18 30 29.86 1011 10 16.0934 0 0
2:15 pm 14:15 Cloudy 44 6.6 26 -3.5 49 49 NNW 22 35 29.86 1011 10 16.0934 0 0
2:35 pm 14:35 Cloudy 38 3.6 28 -2.3 66 66 N 31 50 29.91 1013 7 11.26538 0 0
2:55 pm 14:55 Cloudy 33 0.7 26 -3.3 75 75 N 23 37 29.97 1015 10 16.0934 0 0
3:15 pm 15:15 Cloudy 31 -0.4 25 -4.1 76 76 N 29 46 30 1016 7 11.26538 0 0
3:35 pm 15:35 Cloudy 29 -1.6 22 -5.6 74 74 N 26 43 30.04 1017 10 16.0934 0 0
3:55 pm 15:55 Cloudy 29 -1.5 21 -6.3 70 70 N 33 54 30.06 1018 10 16.0934 0 0
4:15 pm 16:15 Cloudy 29 -1.6 20 -6.8 68 68 N 26 43 30.08 1019 10 16.0934 0 0
4:35 pm 16:35 Cloudy 28 -2 19 -7.5 66 66 N 23 37 30.1 1019 10 16.0934 0 0
4:55 pm 16:55 Cloudy 27 -2.7 18 -7.9 68 68 N 23 37 30.12 1020 10 16.0934 0 0
5:15 pm 17:15 Cloudy 26 -3.5 17 -8.6 68 68 N 26 43 30.15 1021 10 16.0934 0 0
5:35 pm 17:35 Cloudy 24 -4.5 16 -9.1 71 71 N 23 37 30.17 1022 10 16.0934 0 0
5:55 pm 17:55 Mostly Cloudy 23 -5.2 14 -9.9 70 70 N 25 41 30.2 1023 10 16.0934 0 0
6:15 pm 18:15 Partly Cloudy 22 -5.6 14 -9.9 72 72 N 25 41 30.22 1023 10 16.0934 0 0
6:35 pm 18:35 Partly Cloudy 21 -6.1 13 -10.3 72 72 N 23 37 30.25 1024 10 16.0934 0 0
6:55 pm 18:55 Partly Cloudy 20 -6.5 13 -10.5 74 74 N 31 50 30.27 1025 10 16.0934 0 0
7:15 pm 19:15 Clear 19 -7 13 -10.8 75 75 N 25 41 30.28 1026 10 16.0934 0 0
7:35 pm 19:35 Clear 18 -7.9 10 -12.4 70 70 N 23 37 30.31 1027 10 16.0934 0 0
7:55 pm 19:55 Clear 17 -8.6 7 -14.1 65 65 N 22 35 30.33 1027 10 16.0934 0 0
8:15 pm 20:15 Clear 15 -9.3 5 -15.1 63 63 N 28 44 30.35 1028 10 16.0934 0 0
8:35 pm 20:35 Clear 15 -9.6 5 -15.1 65 65 N 18 30 30.36 1028 10 16.0934 0 0
8:55 pm 20:55 Clear 14 -9.8 6 -14.7 68 68 N 20 31 30.37 1029 10 16.0934 0 0
9:55 pm 21:55 Clear 12 -11.2 1 -17 63 63 N 16 26 30.41 1030 10 16.0934 0 0
10:15 pm 22:15 Clear 11 -11.7 -1 -18.2 59 59 N 14 22 30.41 1030 10 16.0934 0 0
10:35 pm 22:35 Clear 10 -12.3 -1 -18.4 61 61 N 15 24 30.44 1031 10 16.0934 0 0
10:55 pm 22:55 Clear 10 -12.5 -1 -18.5 61 61 N 10 17 30.45 1031 10 16.0934 0 0
11:15 pm 23:15 Clear 9 -12.7 -3 -19.3 58 58 N 14 22 30.46 1032 10 16.0934 0 0
11:35 pm 23:35 Clear 8 -13.1 -5 -20.3 55 55 N 15 24 30.48 1032 10 16.0934 0 0
11:55 pm 23:55 Clear 8 -13.4 -6 -21.2 52 52 N 14 22 30.48 1032 10 16.0934 0 0

Powered by AerisWeather